SUN52 SKSP-MHTG

Flight info

Callsign SUN52
Flight time N/A
Altitude 37000
Route FALLA3B FALLA UA552 PERSI/N0338F180 A552 TNT
Aircraft B736/M-SDE2E3FGHIRWXY/LB1

Departure

Time N/A
Airport Gustavo Rojas Pinilla International Airport (SKSP)

Arrival

Time 2026-05-07 17:10
Airport Toncontín Airport (MHTG)
Time Latitude Longitude Altitude Speed Heading
2026-05-07 16:35 13.44400 -89.05699 144 ft 0 kts 340°
2026-05-07 16:36 13.44393 -89.05696 143 ft 5 kts 340°
2026-05-07 16:37 13.44356 -89.05683 140 ft 6 kts 341°
2026-05-07 16:37 13.44338 -89.05660 138 ft 2 kts 245°
2026-05-07 16:37 13.44332 -89.05675 137 ft 7 kts 248°
2026-05-07 16:37 13.44302 -89.05756 136 ft 16 kts 250°
2026-05-07 16:38 13.44258 -89.05868 135 ft 16 kts 233°
2026-05-07 16:38 13.44228 -89.05894 133 ft 14 kts 216°
2026-05-07 16:38 13.44152 -89.05975 129 ft 17 kts 242°
2026-05-07 16:38 13.44097 -89.06100 125 ft 21 kts 249°
2026-05-07 16:39 13.44041 -89.06251 123 ft 23 kts 250°
2026-05-07 16:39 13.43955 -89.06387 119 ft 23 kts 192°
2026-05-07 16:39 13.43834 -89.06310 115 ft 20 kts 88°
2026-05-07 16:39 13.43916 -89.06070 118 ft 67 kts 70°
2026-05-07 16:40 13.44168 -89.05354 130 ft 144 kts 69°
2026-05-07 16:40 13.44577 -89.04197 294 ft 191 kts 71°
2026-05-07 16:40 13.45047 -89.02853 717 ft 206 kts 71°
2026-05-07 16:40 13.45559 -89.01398 989 ft 227 kts 71°
2026-05-07 16:41 13.46102 -88.99860 1641 ft 233 kts 71°
2026-05-07 16:41 13.46655 -88.98295 2372 ft 236 kts 70°
2026-05-07 16:41 13.47220 -88.96697 3009 ft 244 kts 70°
2026-05-07 16:41 13.47810 -88.95028 3609 ft 255 kts 70°
2026-05-07 16:42 13.48423 -88.93293 4215 ft 266 kts 70°
2026-05-07 16:42 13.49062 -88.91485 4805 ft 269 kts 70°
2026-05-07 16:42 13.49652 -88.89673 5367 ft 271 kts 73°
2026-05-07 16:42 13.50159 -88.87796 5960 ft 273 kts 74°
2026-05-07 16:43 13.50678 -88.85918 6561 ft 275 kts 73°
2026-05-07 16:43 13.51227 -88.84036 7142 ft 276 kts 72°
2026-05-07 16:43 13.51797 -88.82162 7733 ft 277 kts 72°
2026-05-07 16:43 13.52386 -88.80277 8339 ft 279 kts 72°
2026-05-07 16:44 13.52987 -88.78384 8927 ft 280 kts 71°
2026-05-07 16:44 13.53594 -88.76489 9512 ft 281 kts 71°
2026-05-07 16:44 13.54210 -88.74583 10103 ft 283 kts 71°
2026-05-07 16:44 13.54831 -88.72666 10711 ft 285 kts 71°
2026-05-07 16:45 13.55458 -88.70732 11322 ft 288 kts 71°
2026-05-07 16:45 13.56094 -88.68776 11943 ft 294 kts 72°
2026-05-07 16:45 13.56746 -88.66767 12532 ft 299 kts 72°
2026-05-07 16:45 13.57409 -88.64726 13124 ft 305 kts 72°
2026-05-07 16:46 13.58085 -88.62641 13597 ft 315 kts 72°
2026-05-07 16:46 13.58794 -88.60455 13934 ft 329 kts 72°
2026-05-07 16:46 13.59533 -88.58170 14220 ft 344 kts 72°
2026-05-07 16:46 13.59808 -88.57320 14340 ft 349 kts 72°
2026-05-07 16:47 13.60532 -88.55092 14586 ft 363 kts 72°
2026-05-07 16:47 13.61347 -88.52578 14848 ft 377 kts 72°
2026-05-07 16:48 13.62190 -88.49976 15036 ft 387 kts 72°
2026-05-07 16:48 13.63044 -88.47337 15057 ft 390 kts 72°
2026-05-07 16:48 13.63892 -88.44722 15062 ft 390 kts 72°
2026-05-07 16:48 13.64749 -88.42076 15089 ft 391 kts 72°
2026-05-07 16:49 13.65612 -88.39409 14989 ft 394 kts 72°
2026-05-07 16:49 13.66476 -88.36737 14976 ft 395 kts 72°
2026-05-07 16:49 13.67341 -88.34054 15005 ft 395 kts 72°
2026-05-07 16:49 13.68209 -88.31361 15107 ft 395 kts 72°
2026-05-07 16:50 13.69072 -88.28681 15032 ft 395 kts 72°
2026-05-07 16:50 13.69939 -88.25991 15036 ft 396 kts 72°
2026-05-07 16:50 13.70801 -88.23314 15065 ft 396 kts 72°
2026-05-07 16:50 13.71661 -88.20640 15029 ft 396 kts 72°
2026-05-07 16:51 13.72531 -88.17941 15033 ft 396 kts 72°
2026-05-07 16:51 13.73398 -88.15247 15079 ft 397 kts 72°
2026-05-07 16:51 13.74256 -88.12575 15111 ft 397 kts 72°
2026-05-07 16:51 13.75125 -88.09875 15138 ft 397 kts 72°
2026-05-07 16:52 13.75991 -88.07182 15167 ft 396 kts 72°
2026-05-07 16:52 13.76849 -88.04508 15077 ft 392 kts 72°
2026-05-07 16:52 13.77699 -88.01862 14759 ft 386 kts 72°
2026-05-07 16:52 13.78531 -87.99271 14523 ft 386 kts 72°
2026-05-07 16:53 13.79376 -87.96637 14275 ft 385 kts 72°
2026-05-07 16:53 13.80205 -87.94047 14071 ft 385 kts 72°
2026-05-07 16:53 13.81054 -87.91403 13870 ft 384 kts 72°
2026-05-07 16:53 13.81880 -87.88825 13607 ft 383 kts 72°
2026-05-07 16:54 13.82712 -87.86230 13342 ft 381 kts 72°
2026-05-07 16:54 13.83544 -87.83632 13103 ft 380 kts 72°
2026-05-07 16:54 13.84358 -87.81097 12801 ft 376 kts 72°
2026-05-07 16:54 13.85183 -87.78517 12571 ft 376 kts 72°
2026-05-07 16:55 13.85998 -87.75972 12311 ft 375 kts 72°
2026-05-07 16:55 13.86785 -87.73505 12056 ft 373 kts 72°
2026-05-07 16:55 13.87611 -87.70918 11778 ft 371 kts 72°
2026-05-07 16:55 13.88410 -87.68417 11565 ft 371 kts 72°
2026-05-07 16:56 13.89217 -87.65894 11364 ft 370 kts 72°
2026-05-07 16:56 13.90020 -87.63377 11129 ft 369 kts 71°
2026-05-07 16:56 13.91600 -87.58423 10657 ft 361 kts 71°
2026-05-07 16:57 13.92381 -87.55973 10368 ft 353 kts 71°
2026-05-07 16:57 13.93139 -87.53596 10076 ft 346 kts 71°
2026-05-07 16:57 13.93869 -87.51302 9907 ft 336 kts 71°
2026-05-07 16:57 13.94583 -87.49059 9789 ft 324 kts 71°
2026-05-07 16:58 13.95278 -87.46877 9652 ft 312 kts 71°
2026-05-07 16:58 13.95936 -87.44811 9506 ft 301 kts 71°
2026-05-07 16:58 13.96580 -87.42784 9355 ft 292 kts 71°
2026-05-07 16:58 13.97203 -87.40828 9235 ft 282 kts 71°
2026-05-07 16:59 13.97808 -87.38934 9107 ft 280 kts 71°
2026-05-07 16:59 13.98412 -87.37035 8993 ft 280 kts 71°
2026-05-07 16:59 13.99022 -87.35118 8877 ft 280 kts 71°
2026-05-07 16:59 13.99625 -87.33215 8762 ft 280 kts 71°
2026-05-07 17:00 14.00232 -87.31304 8646 ft 279 kts 71°
2026-05-07 17:00 14.00834 -87.29410 8530 ft 279 kts 71°
2026-05-07 17:00 14.01432 -87.27525 8415 ft 278 kts 71°
2026-05-07 17:00 14.02032 -87.25635 8299 ft 279 kts 71°
2026-05-07 17:01 14.02682 -87.23757 8177 ft 279 kts 64°
2026-05-07 17:01 14.03740 -87.22082 8061 ft 278 kts 49°
2026-05-07 17:01 14.05091 -87.20668 7951 ft 278 kts 45°
2026-05-07 17:01 14.06509 -87.19340 7813 ft 270 kts 37°
2026-05-07 17:02 14.08109 -87.18357 7655 ft 263 kts 25°
2026-05-07 17:02 14.09805 -87.17780 7504 ft 255 kts 13°
2026-05-07 17:02 14.11575 -87.17584 7316 ft 251 kts
2026-05-07 17:02 14.13297 -87.17765 7077 ft 249 kts 349°
2026-05-07 17:03 14.14938 -87.18305 6922 ft 243 kts 337°
2026-05-07 17:03 14.16404 -87.19164 6670 ft 242 kts 325°
2026-05-07 17:03 14.17709 -87.20264 6309 ft 246 kts 317°
2026-05-07 17:03 14.18873 -87.21559 5961 ft 249 kts 309°
2026-05-07 17:04 14.19784 -87.23082 5642 ft 249 kts 292°
2026-05-07 17:04 14.20148 -87.24771 5317 ft 242 kts 272°
2026-05-07 17:04 14.20043 -87.26487 5209 ft 245 kts 264°
2026-05-07 17:04 14.19782 -87.28315 5616 ft 268 kts 260°
2026-05-07 17:05 14.19307 -87.30194 5577 ft 271 kts 246°
2026-05-07 17:05 14.18270 -87.31771 5262 ft 259 kts 228°
2026-05-07 17:05 14.16984 -87.32940 5296 ft 233 kts 213°
2026-05-07 17:05 14.15614 -87.33644 5313 ft 206 kts 197°
2026-05-07 17:06 14.14297 -87.33941 5293 ft 183 kts 183°
2026-05-07 17:06 14.13052 -87.33860 5248 ft 176 kts 165°
2026-05-07 17:06 14.11895 -87.33445 5215 ft 175 kts 152°
2026-05-07 17:06 14.10823 -87.32855 5188 ft 170 kts 150°
2026-05-07 17:07 14.09763 -87.32282 5198 ft 178 kts 149°
2026-05-07 17:07 14.08677 -87.31625 5299 ft 181 kts 145°
2026-05-07 17:07 14.07654 -87.30842 5391 ft 181 kts 136°
2026-05-07 17:07 14.06795 -87.29892 5480 ft 181 kts 123°
2026-05-07 17:08 14.06141 -87.28780 5433 ft 179 kts 119°
2026-05-07 17:08 14.05539 -87.27678 4993 ft 179 kts 117°
2026-05-07 17:08 14.04928 -87.26557 4530 ft 179 kts 117°
2026-05-07 17:08 14.04352 -87.25448 4131 ft 174 kts 112°
2026-05-07 17:09 14.03867 -87.24347 3937 ft 168 kts 111°
2026-05-07 17:09 14.03655 -87.23185 3890 ft 165 kts 82°
2026-05-07 17:09 14.04131 -87.22137 3804 ft 163 kts 27°
2026-05-07 17:09 14.05245 -87.21962 3454 ft 165 kts 10°
2026-05-07 17:10 14.06263 -87.21667 3285 ft 124 kts 21°
2026-05-07 17:10 14.06744 -87.21483 3266 ft 24 kts 20°
2026-05-07 17:10 14.06834 -87.21460 3253 ft 15 kts 352°
2026-05-07 17:10 14.06868 -87.21506 3248 ft 4 kts 239°
2026-05-07 17:11 14.06857 -87.21519 3249 ft 1 kts 224°
2026-05-07 17:11 14.06815 -87.21546 3253 ft 11 kts 201°
2026-05-07 17:11 14.06724 -87.21581 3264 ft 11 kts 199°
2026-05-07 17:11 14.06666 -87.21601 3268 ft 8 kts 199°
2026-05-07 17:12 14.06606 -87.21623 3269 ft 14 kts 198°
2026-05-07 17:12 14.06484 -87.21661 3272 ft 17 kts 198°
2026-05-07 17:12 14.06386 -87.21695 3277 ft 12 kts 199°
2026-05-07 17:12 14.06297 -87.21730 3284 ft 13 kts 199°
2026-05-07 17:13 14.06207 -87.21763 3289 ft 16 kts 202°
2026-05-07 17:13 14.06106 -87.21796 3292 ft 13 kts 197°
2026-05-07 17:13 14.06043 -87.21822 3296 ft 4 kts 233°
2026-05-07 17:13 14.06046 -87.21853 3296 ft 5 kts 290°
2026-05-07 17:14 14.06050 -87.21862 3296 ft 0 kts 290°
2026-05-07 17:14 14.06050 -87.21864 3296 ft 0 kts 290°